E8220 Weather Reports


time (UTC)temp
C
wind
direction
speed
KPH
gust
KPH
rain 1hr
cm
rain 24hr
cm
rain mn
cm
humidity
%
barometer
mb
20260507143705 10 0.0 0.0 0.00 0.00 0.00 88 1021.9
20260507140542 10 0.0 0.0 0.00 0.00 0.00 91 1021.8
20260507133435 10 0.0 0.0 0.00 0.00 0.00 92 1021.8
20260507130327 9 0.0 0.0 0.00 0.00 0.00 92 1021.7
20260507123351 10 0.0 0.0 0.00 0.00 0.00 91 1021.7
20260507120318 10 0.0 0.0 0.00 0.00 0.00 90 1022.0
20260507110234 10 0.0 0.0 0.00 0.00 0.00 89 1022.2
20260507103144 11 0.0 0.0 0.00 0.00 0.00 90 1022.2
20260507100206 11 0.0 0.0 0.00 0.00 0.00 90 1022.3
20260507093214 11 0.0 0.0 0.00 0.00 0.00 89 1022.3
20260507090316 11 0.0 0.0 0.00 0.00 0.00 89 1022.3
20260507083338 11 0.0 0.0 0.00 0.00 0.00 89 1022.3
20260507080237 11 0.0 0.0 0.00 0.00 0.00 89 1022.2
20260507073149 11 0.0 0.0 0.00 0.00 0.00 89 1022.1
20260507070119 11 0.0 0.0 0.00 0.00 0.00 88 1021.9
20260507063026 11 0.0 0.0 0.00 0.00 0.00 87 1021.8
20260507060106 12 0.0 0.0 0.00 0.00 0.00 85 1022.0
20260507045930 12 0.0 0.0 0.00 0.00 0.00 84 1022.1
20260507042829 12 0.0 0.0 0.00 0.00 0.00 83 1022.0
20260507035736 12 0.0 0.0 0.00 0.00 0.00 82 1021.8
20260507025534 13 0.0 0.0 0.00 0.00 0.00 79 1021.6
20260507022422 13 0.0 0.0 0.00 0.00 0.00 78 1021.5
20260507015411 13 0.0 0.0 0.00 0.00 0.00 77 1021.4
20260507012313 13 0.0 0.0 0.00 0.00 0.00 77 1021.5
20260507005300 13 0.0 0.0 0.00 0.00 0.00 76 1021.6
20260507002325 14 0.0 0.0 0.00 0.00 0.00 74 1021.6
20260506235329 13 0.0 0.0 0.00 0.00 0.00 75 1021.6
20260506232306 13 0.0 0.0 0.00 0.00 0.00 76 1021.6
20260506225136 13 0.0 0.0 0.00 0.00 0.00 78 1021.6
20260506222045 13 0.0 0.0 0.00 0.00 0.00 79 1021.9
20260506215058 13 0.0 0.0 0.00 0.00 0.00 81 1022.0
20260506212009 13 0.0 0.0 0.00 0.00 0.00 80 1022.0
20260506204836 14 0.0 0.0 0.00 0.00 0.00 80 1021.7
20260506201757 14 0.0 0.0 0.00 0.00 0.00 79 1021.8
20260506194826 13 0.0 0.0 0.00 0.00 0.00 83 1021.5
20260506184622 13 0.0 0.0 0.00 0.00 0.00 83 1021.5
20260506181745 13 0.0 0.0 0.00 0.00 0.00 87 1021.3
20260506174817 13 0.0 0.0 0.00 0.00 0.00 88 1020.9
20260506171824 12 0.0 0.0 0.00 0.00 0.00 89 1021.3
20260506164737 12 0.0 0.0 0.00 0.00 0.00 90 1021.1
20260506161844 12 0.0 0.0 0.00 0.00 0.00 91 1020.8
20260506154839 12 0.0 0.0 0.00 0.00 0.00 92 1020.5
20260506151903 12 0.0 0.0 0.00 0.00 0.00 93 1020.9